Flag for Cuba Weather past 2 weeks in Holguín, Cuba

Now
75 °F

Thunderstorms. Broken clouds.


Feels Like: 77 °F
Forecast: N/A
Wind: 15 mph from Northeast

Location: Holguin Civ / Mil

Current Time: Aug 30, 2014 at 6:37:29 PM

Latest Report: Aug 30, 2014 at 5:53 PM


Visibility: 4 mi

Pressure: 29.98 "Hg

Humidity: 69%

Dew point: 64 °F

Location of HolguínLocation

Historic Weather in Holguín — Graph

°F

Holguín temperature yesterday

Maximum temperature yesterday: 93 °F (at 2:50 PM)
Minimum temperature yesterday: 79 °F (at 12:50 AM)
Average temperature yesterday: 84 °F

Past Weeks' High & Low Weather Summary

 TemperatureHumidityPressure
High95 °F (Aug 15, 4:50 PM)100% (Aug 28, 6:02 AM)30.07 "Hg (Aug 28, 6:02 AM)
Low59 °F (Aug 26, 5:50 PM)36% (Aug 16, 3:50 PM)29.71 "Hg (Aug 24, 2:51 PM)
Average83 °F72%29.94 "Hg
* Reported Aug 15 4:50 PM — Aug 30 4:53 PM, Holguín, Weather by CustomWeather, © 2014

Note: Actual official high and low records may vary slightly from our data, if they occured in-between our weather recording intervals... More about our weather records

Advertising

Holguín weather history for previous 24 hours

 ConditionsComfort  
Time TempWeatherWind HumidityBarometerVisibility
4:53 PM
Aug 30
88 °FScattered showers. Broken clouds.6 mph62%29.98 "Hg5 mi
3:50 PM93 °FScattered clouds.8 mph41%29.98 "Hg6 mi
2:50 PM93 °FScattered clouds.9 mph41%29.98 "Hg6 mi
1:50 PM91 °FBroken clouds.10 mph49%30.04 "Hg6 mi
12:49 PM90 °FBroken clouds.12 mph49%30.04 "Hg6 mi
11:51 AM90 °FScattered clouds.12 mph52%30.04 "Hg6 mi
10:50 AM86 °FPartly sunny.12 mph59%30.04 "Hg6 mi
9:50 AM82 °FPartly sunny.8 mph70%30.07 "Hg6 mi
8:50 AM81 °FPassing clouds.5 mph79%30.04 "Hg6 mi
7:51 AM77 °FPassing clouds.8 mph89%30.04 "Hg6 mi
6:50 AM75 °FPassing clouds.8 mph94%30.01 "Hg6 mi
5:50 AM75 °FFog.6 mph94%30.01 "Hg4 mi
4:50 AM75 °FFog.6 mph94%30.01 "Hg4 mi
3:50 AM75 °FClear.6 mph94%29.98 "Hg10 mi
2:50 AM75 °FClear.2 mph94%30.01 "Hg10 mi
1:50 AM77 °FClear.2 mph94%30.01 "Hg10 mi
12:50 AM79 °FClear.6 mph89%30.01 "Hg10 mi
11:50 PM
Aug 29
81 °FClear.13 mph84%30.01 "Hg10 mi
10:50 PM79 °FClear.10 mph84%30.04 "Hg10 mi
9:50 PM81 °FClear.16 mph84%30.01 "Hg10 mi
8:50 PM82 °FPassing clouds.15 mph74%29.98 "HgN/A
7:50 PM84 °FPassing clouds.10 mph66%29.98 "HgN/A
6:50 PM86 °FPassing clouds.18 mph55%29.95 "HgN/A
Weather by CustomWeather, © 2014

See weather overviewHow to use our weather pages